EHI
34 36 33 32 40 48 49 42 33 32 31 23 16 16 16 14 11 11 16 18 14 9 6 5 5 5 4 2 1 1 1 2 5 6 4 4 6 9 11 11 9 9 12
37 39 36 35 42 51 52 45 37 33 31 25 19 17 18 18 17 19 23 23 18 12 8 7 6 6 6 5 4 4 2 2 3 3 3 2 3 6 7 9 9 10 12
42 43 42 40 45 54 56 52 47 40 34 28 22 18 19 21 24 28 29 27 22 16 12 11 9 8 9 10 10 8 6 4 3 2 2 2 2 3 5 5 8 11 13
46 47 46 45 48 54 58 60 61 53 42 34 27 21 20 21 25 28 29 27 23 19 16 16 14 13 12 12 12 11 9 8 5 4 5 6 7 8 7 5 7 11 12
48 51 52 51 50 53 57 62 66 63 53 42 33 28 23 20 22 26 27 28 25 21 20 21 21 19 15 14 15 15 14 12 10 7 7 9 11 12 11 9 7 8 8
47 52 56 56 54 53 54 58 63 63 57 46 39 36 31 25 26 29 31 29 27 25 24 25 28 26 21 20 22 21 20 18 16 13 11 11 12 14 14 11 8 5 4
41 47 54 58 57 54 52 54 59 61 56 49 43 42 38 33 32 33 32 29 26 28 31 33 35 32 27 25 26 26 25 22 20 18 18 17 15 15 15 14 11 7 4
36 41 50 56 57 55 52 53 58 60 56 51 48 45 42 37 36 36 31 25 23 27 35 41 41 36 28 26 28 28 27 25 22 20 23 25 20 18 17 17 17 13 10
34 39 46 51 53 54 54 55 59 60 57 54 51 48 44 41 41 40 33 25 23 27 38 45 42 36 30 28 31 31 30 30 26 22 24 26 24 20 19 20 22 20 16
31 38 44 45 46 49 51 54 59 62 59 55 54 51 48 45 43 41 36 31 28 32 41 46 43 37 33 33 35 36 36 36 32 27 26 27 23 20 20 21 23 23 20
28 35 41 42 43 45 48 53 59 63 61 58 56 55 52 49 45 40 38 36 36 40 45 47 45 40 37 38 38 38 39 39 37 32 29 27 24 20 20 19 19 22 22
30 34 37 41 45 46 49 54 59 62 62 60 58 56 55 54 50 45 43 43 44 45 46 48 48 44 42 42 42 39 37 39 40 37 32 29 27 24 21 18 17 20 23
35 36 38 43 49 52 54 56 58 59 60 60 58 55 55 57 56 52 50 50 49 48 48 48 49 47 45 45 44 41 37 37 39 38 34 31 30 28 24 19 18 19 21
40 42 46 49 53 57 58 56 56 56 57 59 57 55 55 57 58 56 54 53 52 51 51 50 50 49 47 46 45 42 39 38 38 37 35 32 30 29 26 22 20 18 19
42 47 50 52 55 57 57 56 55 54 57 60 60 58 57 58 58 56 54 54 53 53 53 51 49 48 45 40 39 39 39 39 38 38 36 32 29 27 23 19 16 15 15
43 45 47 50 53 54 53 52 52 53 55 59 61 60 59 58 56 54 53 53 52 52 52 49 45 42 37 29 27 30 36 40 39 38 34 28 25 23 17 10 6 8 10
41 41 43 44 47 48 47 45 45 48 50 54 57 60 59 57 54 53 52 51 50 49 47 44 40 37 30 20 16 20 31 38 38 34 28 22 18 18 15 9 5 5 6
37 38 39 39 41 42 41 39 37 39 42 46 50 54 55 53 52 51 50 48 47 45 42 39 37 34 27 17 10 13 24 33 32 28 23 17 15 15 15 14 13 11 8
33 34 33 34 36 37 38 36 32 30 32 39 44 46 48 48 48 47 45 43 42 40 39 37 34 31 24 15 8 9 18 25 25 23 19 15 13 12 11 14 17 15 12
29 28 28 30 32 35 37 34 30 28 30 36 40 41 42 43 42 39 38 37 36 35 35 33 30 26 21 13 6 7 14 19 19 17 14 11 9 7 5 9 13 13 12
26 26 26 28 31 35 34 31 29 31 34 37 38 38 38 37 34 32 31 31 31 31 31 29 24 21 18 12 4 4 10 14 14 12 10 8 5 2 1 3 6 7 7
24 24 25 28 31 32 31 30 31 34 36 36 35 36 35 32 30 30 29 28 28 29 28 25 21 17 16 11 3 1 4 8 9 9 7 4 1 0 0 0 1 2 2
20 21 24 27 29 30 30 31 31 32 33 33 33 34 33 30 30 30 30 28 28 27 26 23 19 16 15 11 5 1 1 3 5 6 4 1 0 0 0 0 0 0 0
19 22 24 27 29 31 32 32 31 29 29 29 31 31 29 29 31 31 28 26 25 25 26 23 19 16 14 12 7 3 1 1 2 2 2 0 0 0 0 0 0 0 0
22 24 26 27 29 31 31 31 30 29 26 25 26 25 23 26 28 26 22 18 17 18 20 20 16 14 12 10 8 5 3 1 1 2 2 2 1 1 1 1 1 1 1
22 25 27 27 27 29 30 31 32 30 26 23 21 18 19 23 24 21 16 11 10 11 12 13 11 10 8 6 5 4 3 2 1 2 3 3 3 2 2 2 1 1 2
Wind_Speed
12 11 11 11 11 9 8 7 6 6 5 4 4 4 4 4 4 4 5 5 4 5 3 2 4 3 3 3 3 2 3 3 2 2 1 2 3 4 3 3 3 4 4
13 12 11 11 11 10 9 8 7 7 6 4 3 3 4 4 4 4 5 5 5 5 5 4 4 4 3 4 3 3 3 3 2 2 1 1 2 2 4 4 4 4 3
14 13 12 12 12 12 11 9 8 7 7 5 4 3 3 3 4 4 5 5 5 5 3 5 4 3 4 3 4 4 4 3 2 2 2 1 2 1 1 3 3 3 3
14 14 13 12 12 12 11 9 8 7 6 6 5 5 4 4 4 4 5 6 6 6 6 5 5 4 3 4 5 5 3 3 3 2 2 2 1 1 1 2 1 3 3
14 14 14 12 12 12 11 10 8 7 6 6 5 5 4 3 3 4 5 5 5 6 6 6 6 5 4 5 5 3 4 3 3 2 2 2 2 3 2 2 2 2 2
12 13 13 11 10 11 11 10 9 7 7 6 5 5 5 4 4 4 5 5 4 5 7 7 6 6 5 5 5 4 5 3 3 2 2 2 2 2 2 2 2 2 2
11 12 14 13 11 10 10 11 10 8 8 7 6 5 5 4 4 4 5 5 4 4 6 6 5 5 5 5 5 5 5 4 4 3 3 2 2 2 2 2 2 2 2
9 12 13 13 11 11 10 10 10 9 8 8 6 5 5 4 4 4 4 4 3 4 5 6 5 5 5 5 4 4 5 4 5 6 4 3 3 2 2 3 2 2 2
8 9 11 12 11 11 10 10 10 9 9 8 7 6 6 5 4 4 5 3 3 4 5 5 6 5 5 4 4 4 4 4 5 5 4 4 3 3 3 2 2 3 3
7 8 9 10 11 11 9 9 9 9 8 7 7 7 6 5 4 4 4 4 3 3 4 5 5 5 5 5 4 4 4 4 4 4 4 4 3 3 2 3 3 3 3
4 6 6 6 7 9 10 9 8 9 8 8 7 6 6 6 5 4 3 3 3 3 3 4 4 4 5 5 4 5 4 4 4 4 4 4 4 3 3 3 3 3 3
4 5 6 5 5 5 7 8 8 8 8 7 6 6 5 5 5 5 4 3 3 3 3 3 4 4 5 4 5 5 5 5 5 4 3 4 4 4 3 3 4 3 3
6 5 6 4 3 3 4 4 5 6 7 7 7 6 6 5 5 5 4 4 3 3 3 3 3 4 4 4 4 4 4 3 3 3 3 3 3 3 3 3 4 3 4
5 5 5 3 3 3 3 3 3 3 4 6 6 6 6 5 5 4 4 4 4 4 3 3 4 3 3 3 2 2 3 3 3 3 3 2 3 3 4 4 4 4 3
5 5 5 4 3 3 3 2 2 2 2 3 4 5 5 5 4 4 4 4 4 5 4 4 4 3 3 2 2 3 4 3 3 3 2 3 3 3 3 3 2 3 3
3 4 5 4 4 3 2 2 1 1 2 2 3 3 4 4 4 4 4 4 4 4 4 3 3 3 3 2 2 3 3 3 3 3 3 4 4 4 5 5 4 4 4
3 4 4 3 2 2 2 2 1 1 1 1 2 2 3 3 3 4 3 3 3 2 2 2 2 2 1 1 1 2 2 2 3 3 3 3 3 2 2 3 4 4 5
3 3 2 2 1 1 1 2 1 1 2 2 2 2 2 2 2 3 3 2 2 2 2 2 2 2 2 2 2 2 3 3 3 3 3 3 2 2 2 3 3 3 3
3 2 1 2 1 1 1 1 1 0 0 1 1 2 2 2 2 2 3 3 3 3 3 3 2 2 2 3 3 2 2 2 3 3 3 2 2 2 2 3 3 3 3
3 2 1 2 1 1 1 1 1 1 1 1 1 1 2 2 2 2 2 2 2 3 3 2 3 3 3 4 5 4 2 3 2 2 2 1 1 1 1 2 3 3 3
2 1 1 2 1 1 1 1 0 1 1 0 0 1 1 2 2 2 2 2 2 2 2 2 2 3 3 5 6 6 3 2 2 2 2 1 2 1 1 2 3 4 3
1 1 1 1 1 1 1 0 1 1 1 0 1 1 1 1 2 2 2 2 2 2 3 3 3 2 3 4 6 7 5 3 3 2 1 1 1 2 3 3 4 4 3
1 1 1 1 1 0 0 1 0 1 1 1 0 1 1 1 1 1 2 2 1 2 2 2 2 2 2 2 4 5 4 3 2 1 1 1 2 3 3 5 5 4 3
2 2 1 0 1 0 0 1 1 0 0 0 0 1 1 1 1 1 1 1 1 1 1 1 1 1 1 2 1 1 1 1 1 0 0 1 3 3 3 3 3 3 2
2 2 2 1 1 0 0 1 0 1 0 0 1 1 1 2 1 1 1 0 1 0 1 1 0 1 1 2 3 2 1 0 1 0 1 1 1 1 1 1 1 1 1
2 2 2 2 1 1 1 1 1 0 1 1 1 1 1 1 2 2 2 5 3 3 3 2 1 2 3 4 4 3 3 1 1 0 2 2 1 1 1 1 1 1 1
Wind_Direction
160 157 160 155 154 154 156 160 162 155 158 163 170 171 166 163 153 153 149 156 169 173 179 174 158 174 180 180 172 164 183 204 217 216 252 258 231 207 203 215 218 211 202
162 163 167 162 162 163 165 164 167 165 169 170 178 176 168 168 160 157 149 167 175 177 180 182 177 173 178 180 182 183 200 217 208 196 212 257 273 244 217 199 208 213 204
167 167 170 172 170 169 172 171 171 167 175 167 173 179 162 172 157 153 158 172 178 184 180 175 182 178 183 180 188 197 203 210 226 218 189 197 229 264 265 223 204 199 207
166 168 171 174 176 173 171 166 164 166 172 172 176 182 180 186 178 169 166 173 183 185 187 184 181 191 193 187 201 196 198 204 222 235 225 221 211 201 284 286 255 215 210
169 168 172 173 175 170 167 164 162 165 169 178 183 187 188 190 178 166 164 174 181 190 191 184 185 194 195 196 208 192 209 213 220 224 222 228 217 216 215 249 266 268 239
168 166 167 163 169 167 165 163 162 164 169 179 184 189 194 191 188 179 171 183 188 193 194 189 189 194 198 200 201 198 213 219 230 245 242 228 224 236 228 228 240 248 258
166 165 164 164 167 168 168 165 164 170 174 180 189 189 194 193 199 191 184 192 197 192 191 193 187 198 202 203 203 203 214 214 220 233 246 244 239 234 222 225 243 262 272
161 163 165 166 168 171 170 165 166 171 176 181 189 188 188 197 203 203 206 200 205 197 184 182 182 193 200 209 202 209 217 211 217 230 230 241 247 243 232 222 216 245 264
155 158 160 166 168 171 171 169 165 171 179 186 183 186 191 200 199 192 203 214 208 209 184 178 185 196 202 210 204 219 223 213 216 228 229 234 244 248 247 237 219 214 242
153 151 156 166 170 173 170 166 164 171 176 182 187 189 194 196 199 206 199 205 213 210 180 182 187 196 201 206 210 219 225 221 226 227 231 237 245 250 248 245 238 222 221
131 134 139 151 162 166 170 170 168 169 175 180 184 189 186 192 200 206 208 201 211 203 190 192 193 201 204 202 208 221 220 219 226 230 228 230 239 251 256 254 252 243 227
110 109 116 129 141 153 165 170 173 171 172 173 176 185 184 186 195 201 203 203 201 204 191 191 201 214 214 205 210 221 221 221 222 224 229 236 241 245 257 262 261 253 233
95 97 101 105 125 137 138 149 163 171 176 174 178 183 191 191 192 194 190 197 202 201 199 193 207 220 225 215 212 214 225 224 219 216 224 238 244 247 253 252 260 263 257
94 96 100 95 90 94 107 123 143 168 178 173 180 183 189 192 192 193 192 192 199 201 203 205 206 213 222 221 216 214 226 229 225 220 221 239 245 244 245 244 252 261 268
97 87 84 71 71 78 89 104 129 155 161 164 180 183 183 187 193 196 196 194 197 207 207 213 211 202 204 216 223 226 226 227 229 222 209 225 232 228 236 248 246 254 261
87 90 88 79 64 64 70 77 111 128 146 163 164 161 179 186 190 194 197 202 201 205 205 206 205 214 217 190 204 222 229 231 230 231 223 228 228 225 219 231 239 239 240
88 89 93 89 74 57 80 85 74 117 127 143 149 157 178 188 193 202 196 204 203 193 199 197 200 198 200 206 199 227 224 231 237 238 244 249 254 245 241 230 228 241 243
101 88 87 92 91 64 57 98 97 131 147 153 154 161 181 185 190 195 194 187 179 179 195 207 190 188 207 191 192 236 237 240 237 235 232 232 251 273 277 269 249 246 254
107 112 125 122 102 88 70 103 111 129 183 172 157 175 187 195 191 187 183 181 186 187 198 193 198 201 181 175 175 191 243 234 242 245 247 236 228 262 271 266 262 263 273
92 97 134 127 111 98 110 140 163 179 229 234 210 220 207 194 191 191 190 196 199 204 207 190 197 193 187 179 181 196 238 239 238 230 218 199 212 247 287 263 265 264 269
71 74 145 142 117 104 104 157 233 255 277 289 248 225 222 198 186 180 181 181 200 196 203 200 212 210 194 177 184 195 223 244 245 239 220 163 149 180 244 250 254 258 273
18 355 48 89 97 126 139 203 301 336 348 312 193 187 207 242 189 160 177 186 199 208 209 213 223 220 193 184 194 199 218 261 267 255 151 136 188 263 268 252 245 260 271
327 322 353 15 53 78 163 208 277 344 333 340 330 217 220 183 132 168 181 185 193 229 224 217 219 201 169 160 180 193 212 242 268 302 114 180 233 260 261 244 244 242 244
331 318 299 280 306 321 296 249 233 320 120 228 270 206 181 182 154 193 205 204 190 221 234 222 218 171 114 97 110 161 186 208 216 306 350 233 243 253 254 253 235 231 233
354 349 344 312 278 286 344 283 316 51 75 253 258 244 212 201 171 141 81 81 58 198 213 247 186 160 158 154 154 153 159 126 76 17 268 259 249 238 239 236 246 254 260
3 352 332 312 304 313 297 298 329 336 232 248 258 256 247 216 177 154 116 64 71 89 103 97 84 85 114 147 148 143 141 158 152 180 247 257 265 267 267 276 275 263 287